When you browse on this site, cookies collect data to enhance your experience and personalize the content and advertising you see.
Visit our Privacy Policy to learn more. By continuing to use the site, you agree to this use of cookies and data.
  • In Austria
  • List of Countries
  • For 7 days
  • Water Temperature
  • Weather Map
  • News
  • Weather Widgets
  • user-avatar
    Login

    Hourly Weather Krasnoglinnyy

    Today, 26 January, Sunday

    Time Temperature Precipitation Wind Pressure Humidity
    00:00 -5°C° 0.4 mm 8 mps 726 mmHg 96%
    01:00 -4°C° 0.4 mm 8 mps 725 mmHg 97%
    02:00 -3°C° 0.6 mm 7 mps 725 mmHg 97%
    03:00 -4°C° 0.6 mm 6 mps 725 mmHg 97%
    04:00 -4°C° 0 mm 5 mps 723 mmHg 98%
    05:00 -3°C° 1 mm 4 mps 723 mmHg 98%
    06:00 -2°C° 1 mm 3 mps 722 mmHg 98%
    07:00 -2°C° 1 mm 3 mps 722 mmHg 98%
    08:00 -2°C° 1 mm 3 mps 722 mmHg 98%
    09:00 -2°C° 1 mm 3 mps 722 mmHg 97%
    10:00 -4°C° 0 mm 3 mps 722 mmHg 96%
    11:00 -5°C° 0.3 mm 4 mps 723 mmHg 94%
    12:00 -5°C° 0.3 mm 4 mps 723 mmHg 92%
    13:00 -7°C° 0.3 mm 5 mps 723 mmHg 90%
    14:00 -8°C° 0 mm 4 mps 724 mmHg 90%
    15:00 -9°C° 0 mm 4 mps 725 mmHg 91%
    16:00 -10°C° 0 mm 4 mps 726 mmHg 92%
    17:00 -10°C° 0 mm 3 mps 727 mmHg 93%
    18:00 -12°C° 0 mm 3 mps 728 mmHg 93%
    19:00 -13°C° 0 mm 3 mps 729 mmHg 94%
    20:00 -12°C° 0.1 mm 3 mps 730 mmHg 94%
    21:00 -11°C° 0.1 mm 4 mps 731 mmHg 94%
    22:00 -12°C° 0.1 mm 5 mps 732 mmHg 94%
    23:00 -13°C° 0 mm 5 mps 733 mmHg 94%

    Tomorrow, 27 January, Monday

    Time Temperature Precipitation Wind Pressure Humidity
    00:00 -15°C° 0 mm 4 mps 734 mmHg 94%
    01:00 -16°C° 0 mm 4 mps 734 mmHg 94%
    02:00 -16°C° 0 mm 4 mps 734 mmHg 95%
    03:00 -17°C° 0 mm 4 mps 735 mmHg 96%
    04:00 -17°C° 0 mm 4 mps 735 mmHg 97%
    05:00 -17°C° 0 mm 4 mps 735 mmHg 97%
    06:00 -17°C° 0 mm 4 mps 735 mmHg 97%
    07:00 -16°C° 0 mm 4 mps 735 mmHg 97%
    08:00 -15°C° 0 mm 4 mps 735 mmHg 96%
    09:00 -15°C° 0 mm 4 mps 735 mmHg 95%
    10:00 -14°C° 0 mm 5 mps 735 mmHg 94%
    11:00 -12°C° 0.4 mm 6 mps 734 mmHg 94%
    12:00 -12°C° 0.4 mm 7 mps 733 mmHg 94%
    13:00 -11°C° 0.4 mm 8 mps 732 mmHg 94%
    14:00 -10°C° 0.3 mm 8 mps 731 mmHg 93%
    15:00 -8°C° 0.3 mm 8 mps 730 mmHg 93%
    16:00 -8°C° 0.3 mm 9 mps 730 mmHg 93%
    17:00 -9°C° 0.1 mm 9 mps 730 mmHg 91%
    18:00 -9°C° 0.1 mm 10 mps 730 mmHg 90%
    19:00 -10°C° 0.1 mm 10 mps 731 mmHg 88%
    20:00 -13°C° 0 mm 10 mps 732 mmHg 88%
    21:00 -14°C° 0 mm 10 mps 734 mmHg 87%
    22:00 -17°C° 0 mm 10 mps 735 mmHg 87%
    23:00 -19°C° 0 mm 9 mps 736 mmHg 88%

    Day after tomorrow, 28 January, Tuesday

    Time Temperature Precipitation Wind Pressure Humidity
    00:00 -19°C° 0 mm 7 mps 738 mmHg 90%
    01:00 -19°C° 0 mm 5 mps 739 mmHg 91%
    02:00 -21°C° 0 mm 5 mps 740 mmHg 93%
    03:00 -22°C° 0 mm 4 mps 741 mmHg 94%
    04:00 -22°C° 0 mm 3 mps 742 mmHg 96%
    05:00 -23°C° 0 mm 3 mps 743 mmHg 97%
    06:00 -24°C° 0 mm 3 mps 744 mmHg 98%
    07:00 -24°C° 0 mm 2 mps 745 mmHg 99%
    08:00 -24°C° 0 mm 2 mps 746 mmHg 98%
    09:00 -21°C° 0 mm 1 mps 746 mmHg 98%
    10:00 -22°C° 0 mm 1 mps 747 mmHg 97%
    11:00 -20°C° 0 mm 1 mps 748 mmHg 95%
    12:00 -19°C° 0 mm 1 mps 748 mmHg 94%
    13:00 -18°C° 0 mm 1 mps 749 mmHg 93%
    14:00 -19°C° 0 mm 0 mps 749 mmHg 92%
    15:00 -19°C° 0 mm 0 mps 749 mmHg 92%
    16:00 -20°C° 0 mm 0 mps 750 mmHg 92%
    17:00 -19°C° 0 mm 0 mps 750 mmHg 91%
    18:00 -19°C° 0 mm 1 mps 751 mmHg 90%
    19:00 -19°C° 0 mm 1 mps 751 mmHg 88%
    20:00 -19°C° 0 mm 1 mps 751 mmHg 88%
    21:00 -19°C° 0 mm 1 mps 751 mmHg 87%
    22:00 -20°C° 0 mm 2 mps 752 mmHg 86%
    23:00 -20°C° 0 mm 2 mps 752 mmHg 86%

    29 January, Wednesday

    Time Temperature Precipitation Wind Pressure Humidity
    00:00 -21°C° 0 mm 2 mps 752 mmHg 86%
    01:00 -21°C° 0 mm 2 mps 752 mmHg 86%
    02:00 -21°C° 0 mm 2 mps 752 mmHg 86%
    03:00 -21°C° 0 mm 2 mps 752 mmHg 87%
    04:00 -21°C° 0 mm 2 mps 752 mmHg 87%
    05:00 -21°C° 0 mm 2 mps 752 mmHg 86%
    06:00 -23°C° 0 mm 2 mps 752 mmHg 85%
    07:00 -23°C° 0 mm 2 mps 752 mmHg 85%
    08:00 -21°C° 0 mm 2 mps 752 mmHg 84%
    09:00 -23°C° 0 mm 3 mps 752 mmHg 84%
    10:00 -23°C° 0 mm 3 mps 752 mmHg 84%
    11:00 -21°C° 0 mm 3 mps 752 mmHg 82%
    12:00 -19°C° 0 mm 3 mps 752 mmHg 81%
    13:00 -19°C° 0 mm 4 mps 752 mmHg 79%
    14:00 -19°C° 0 mm 4 mps 751 mmHg 80%
    15:00 -18°C° 0 mm 3 mps 751 mmHg 81%
    16:00 -18°C° 0 mm 3 mps 751 mmHg 82%
    17:00 -18°C° 0 mm 3 mps 751 mmHg 82%
    18:00 -19°C° 0 mm 4 mps 751 mmHg 82%
    19:00 -20°C° 0 mm 4 mps 751 mmHg 83%
    20:00 -20°C° 0 mm 4 mps 751 mmHg 83%
    21:00 -20°C° 0 mm 4 mps 751 mmHg 84%
    22:00 -19°C° 0 mm 4 mps 750 mmHg 85%
    23:00 -19°C° 0 mm 4 mps 750 mmHg 87%

    30 January, Thursday

    Time Temperature Precipitation Wind Pressure Humidity
    00:00 -19°C° 0 mm 4 mps 750 mmHg 89%
    01:00 -18°C° 0 mm 4 mps 750 mmHg 92%
    02:00 -19°C° 0 mm 5 mps 750 mmHg 92%
    03:00 -18°C° 0 mm 5 mps 750 mmHg 93%
    04:00 -18°C° 0 mm 5 mps 749 mmHg 93%
    05:00 -17°C° 0 mm 5 mps 749 mmHg 93%
    06:00 -17°C° 0 mm 5 mps 749 mmHg 93%
    07:00 -15°C° 0 mm 5 mps 749 mmHg 93%
    08:00 -15°C° 0.1 mm 5 mps 749 mmHg 93%
    09:00 -15°C° 0.1 mm 6 mps 749 mmHg 93%
    10:00 -15°C° 0.1 mm 6 mps 749 mmHg 93%
    11:00 -14°C° 0.1 mm 6 mps 749 mmHg 92%
    12:00 -14°C° 0.1 mm 6 mps 749 mmHg 91%
    13:00 -14°C° 0.1 mm 6 mps 749 mmHg 90%
    14:00 -14°C° 0 mm 6 mps 749 mmHg 89%
    15:00 -14°C° 0 mm 6 mps 748 mmHg 88%
    16:00 -14°C° 0 mm 6 mps 748 mmHg 87%
    17:00 -15°C° 0 mm 6 mps 748 mmHg 87%
    18:00 -15°C° 0 mm 6 mps 748 mmHg 86%
    19:00 -16°C° 0 mm 6 mps 747 mmHg 86%
    20:00 -16°C° 0 mm 6 mps 747 mmHg 86%
    21:00 -15°C° 0 mm 5 mps 747 mmHg 85%
    22:00 -15°C° 0 mm 5 mps 747 mmHg 85%
    23:00 -15°C° 0 mm 5 mps 747 mmHg 85%

    31 January, Friday

    Time Temperature Precipitation Wind Pressure Humidity
    00:00 -16°C° 0 mm 6 mps 747 mmHg 85%
    01:00 -16°C° 0 mm 6 mps 747 mmHg 84%
    02:00 -17°C° 0 mm 6 mps 747 mmHg 84%
    03:00 -17°C° 0 mm 5 mps 746 mmHg 84%
    04:00 -17°C° 0 mm 5 mps 746 mmHg 84%
    05:00 -17°C° 0 mm 5 mps 746 mmHg 84%
    06:00 -18°C° 0 mm 5 mps 746 mmHg 84%
    07:00 -18°C° 0 mm 5 mps 746 mmHg 84%
    08:00 -18°C° 0 mm 6 mps 745 mmHg 84%
    09:00 -18°C° 0 mm 6 mps 745 mmHg 83%
    10:00 -18°C° 0 mm 6 mps 745 mmHg 83%
    11:00 -17°C° 0 mm 6 mps 745 mmHg 83%
    12:00 -16°C° 0 mm 6 mps 744 mmHg 84%
    13:00 -16°C° 0 mm 6 mps 744 mmHg 84%
    14:00 -16°C° 0 mm 6 mps 743 mmHg 85%
    15:00 -15°C° 0 mm 6 mps 743 mmHg 86%
    16:00 -15°C° 0 mm 6 mps 742 mmHg 87%
    17:00 -15°C° 0 mm 7 mps 742 mmHg 88%
    18:00 -15°C° 0 mm 7 mps 742 mmHg 88%
    19:00 -14°C° 0 mm 7 mps 742 mmHg 89%
    20:00 -14°C° 0 mm 7 mps 742 mmHg 89%
    21:00 -14°C° 0 mm 6 mps 741 mmHg 89%
    22:00 -14°C° 0 mm 6 mps 741 mmHg 90%
    23:00 -14°C° 0 mm 6 mps 741 mmHg 90%
    Show more